Location: Glass Lake
(42.6301°N, 73.5309°W)
Time: 14:42:58
(UTC+00:00)

Tiangong - Visible Passes

Search period start: 13 October 2024 00:00
Search period end: 23 October 2024 00:00
Orbit: 372 x 377 km, 41.5° (Epoch: 12 October)

Date Brightness Start Highest point End Pass type
(mag) Time Alt. Az. Time Alt. Az. Time Alt. Az.
16 Oct 0.7 10:21:02 10° S 10:22:48 14° SSE 10:24:33 10° ESE visible
18 Oct 0.1 09:50:31 12° SSW 09:52:33 20° SSE 09:54:56 10° ESE visible
19 Oct 1.1 08:50:26 11° SE 08:50:26 11° SE 08:50:39 10° ESE visible
19 Oct -1.2 10:22:28 10° WSW 10:25:25 42° SSE 10:28:23 10° E visible
20 Oct -0.6 09:22:10 28° SSE 09:22:10 28° SSE 09:24:45 10° E visible
21 Oct -1.8 09:53:45 33° SW 09:54:49 54° SSE 09:57:51 10° E visible
22 Oct 0.8 08:53:13 17° E 08:53:13 17° E 08:54:08 10° E visible
22 Oct -2.1 10:25:11 15° W 10:27:38 72° S 10:30:43 10° E visible
